OK1ZXS-6 Weather Reports


time (UTC)temp
F
wind
direction
speed
knots
gust
knots
rain 1hr
in
rain 24hr
in
rain mn
in
humidity
%
barometer
mb
20260905222404 56 292 0.9 3.5 0.00 0.00 0.00 68
20260905220903 57 337 1.7 5.2 0.00 0.00 0.00 68
20260905215403 57 337 0.9 5.2 0.00 0.00 0.00 67
20260905213903 58 247 1.7 4.3 0.00 0.00 0.00 67
20260905212403 58 247 1.7 4.3 0.00 0.00 0.00 66
20260905210902 59 247 1.7 5.2 0.00 0.00 0.00 67
20260905205405 59 270 1.7 5.2 0.00 0.00 0.00 67
20260905203902 60 0 1.7 5.2 0.00 0.00 0.00 67
20260905202404 60 0 2.6 8.7 0.00 0.00 0.00 65
20260905200903 61 337 1.7 6.1 0.00 0.00 0.00 65
20260905195403 61 337 1.7 6.1 0.00 0.00 0.00 65
20260905193902 62 247 3.5 10.4 0.00 0.00 0.00 64
20260905192402 61 292 2.6 10.4 0.00 0.00 0.00 64
20260905190904 61 247 2.6 8.7 0.00 0.00 0.00 66
20260905185404 61 247 1.7 4.3 0.00 0.00 0.00 66
20260905183902 62 247 1.7 6.1 0.00 0.00 0.00 66
20260905182402 62 247 1.7 3.5 0.00 0.00 0.00 66
20260905180903 62 247 1.7 4.3 0.00 0.00 0.00 66
20260905175404 62 270 0.9 5.2 0.00 0.00 0.00 66
20260905173904 63 247 1.7 4.3 0.00 0.00 0.00 65
20260905172405 64 247 1.7 6.1 0.00 0.00 0.00 63
20260905170903 64 270 1.7 7.0 0.00 0.00 0.00 63
20260905165405 64 270 1.7 5.2 0.00 0.00 0.00 63
20260905163902 65 270 3.5 7.8 0.00 0.00 0.00 61
20260905162404 65 270 1.7 7.0 0.00 0.00 0.00 61
20260905160903 65 247 2.6 6.1 0.00 0.00 0.00 60
20260905155405 66 247 3.5 11.3 0.00 0.00 0.00 59
20260905153902 66 315 3.5 10.4 0.00 0.00 0.00 58
20260905152403 66 337 4.3 14.8 0.00 0.00 0.00 59
20260905150903 66 247 4.3 13.0 0.00 0.00 0.00 60
20260905145403 66 270 4.3 20.9 0.00 0.00 0.00 58
20260905143902 66 247 3.5 10.4 0.00 0.00 0.00 58
20260905142404 65 247 4.3 14.8 0.00 0.00 0.00 58
20260905140902 65 247 3.5 10.4 0.00 0.00 0.00 61
20260905135404 66 292 4.3 16.5 0.00 0.00 0.00 57
20260905133901 66 0 5.2 14.8 0.00 0.00 0.00 58
20260905130904 66 0 3.5 12.2 0.00 0.00 0.00 63
20260905125404 66 0 3.5 12.2 0.00 0.00 0.00 65
20260905123903 70 337 2.6 10.4 0.00 0.00 0.00 59
20260905122408 69 270 3.5 10.4 0.00 0.00 0.00 64
20260905120910 64 247 2.6 8.7 0.00 0.00 0.00 68
20260905115403 65 247 2.6 10.4 0.00 0.00 0.00 66
20260905113904 66 0 3.5 10.4 0.00 0.00 0.00 64
20260905112404 66 0 2.6 10.4 0.00 0.00 0.00 64
20260905110902 65 247 4.3 13.9 0.00 0.00 0.00 64
20260905105403 64 247 4.3 14.8 0.00 0.00 0.00 65
20260905103903 63 247 4.3 11.3 0.00 0.00 0.00 69
20260905102404 62 247 3.5 10.4 0.00 0.00 0.00 71
20260905100903 62 247 2.6 7.8 0.00 0.00 0.00 74
20260905095405 61 247 3.5 13.9 0.00 0.00 0.00 74
20260905093902 62 247 2.6 7.8 0.00 0.00 0.00 75
20260905092405 62 270 1.7 9.6 0.00 0.00 0.00 77
20260905090903 61 0 2.6 13.0 0.00 0.00 0.00 78
20260905085404 60 247 3.5 9.6 0.00 0.00 0.00 81
20260905082406 60 270 2.6 7.0 0.00 0.00 0.00 83
20260905080901 58 247 3.5 10.4 0.00 0.00 0.00 84
20260905075404 59 247 3.5 9.6 0.00 0.00 0.00 84
20260905073904 59 225 2.6 7.8 0.00 0.00 0.00 84
20260905072404 58 247 1.7 6.1 0.00 0.00 0.00 86
20260905070903 57 247 1.7 5.2 0.00 0.00 0.00 87
20260905065404 57 247 1.7 6.1 0.00 0.00 0.00 87
20260905063903 57 247 0.9 2.6 0.00 0.00 0.00 87
20260905062405 57 270 0.9 3.5 0.00 0.00 0.00 87
20260905060904 56 270 0.9 3.5 0.00 0.00 0.00 86
20260905055523 56 270 0.9 3.5 0.00 0.00 0.00 86
20260905053903 56 270 1.7 5.2 0.00 0.00 0.00 86
20260905052403 57 337 1.7 5.2 0.00 0.00 0.00 85
20260905050902 57 0 1.7 7.0 0.00 0.00 0.00 84
20260905045403 57 247 1.7 6.1 0.00 0.00 0.00 82
20260905043902 57 0 0.9 4.3 0.00 0.00 0.00 81
20260905042403 57 0 0.9 3.5 0.00 0.00 0.00 83
20260905040902 58 0 0.0 3.5 0.00 0.00 0.00 80
20260905035402 58 0 0.0 1.7 0.00 0.00 0.00 79
20260905033902 59 337 0.9 6.1 0.00 0.00 0.00 78
20260905032402 59 337 0.0 4.3 0.00 0.00 0.00 76
20260905030903 60 0 0.9 4.3 0.00 0.00 0.00 76
20260905025403 60 0 0.0 0.9 0.00 0.00 0.00 76
20260905023903 60 0 0.9 2.6 0.00 0.00 0.00 74
20260905022403 61 0 0.9 1.7 0.00 0.00 0.00 72
20260905020903 62 0 1.7 3.5 0.00 0.00 0.00 72
20260905015403 62 0 1.7 5.2 0.00 0.00 0.00 73
20260905013902 62 0 1.7 4.3 0.00 0.00 0.00 73
20260905012403 63 22 2.6 7.8 0.00 0.00 0.00 74
20260905010902 65 0 3.5 11.3 0.00 0.00 0.00 72
20260905005403 67 247 2.6 7.8 0.00 0.00 0.00 67
20260905003902 66 247 1.7 4.3 0.00 0.00 0.00 69
20260905002403 65 247 0.9 2.6 0.00 0.00 0.00 70
20260905000902 65 247 0.9 3.5 0.00 0.00 0.00 70
20260904235403 65 247 0.9 2.6 0.00 0.00 0.00 70
20260904233902 65 225 0.9 3.5 0.00 0.00 0.00 70
20260904232403 66 247 1.7 4.3 0.00 0.00 0.00 69
20260904230902 65 270 0.9 4.3 0.00 0.00 0.00 71
20260904225402 64 247 0.9 3.5 0.00 0.00 0.00 72